Find Starlink 5120

NORAD ID: 53982 Int'l Des: 2022-125 Owner: SPXS Country: US Constellation: starlink operational
LEOCIRCULAR

現在のビュー

3D地球を読み込み中...

About Starlink 5120

Starlink 5120 (NORAD 53982) is a starlink constellation satellite (v1.5) launched Oct 5, 2022 by SPXS of US. It operates in LEO, CIRCULAR orbit with a mass of 305.00 kg.

Starlink 5120について

説明を読み込み中...

次回通過

Passes for default location (London). Set your location on the main map for personalized predictions.

高度履歴

Loading altitude history...

軌道要素

1 53982U 22125U 26170.18022275 .00000409 00000-0 43785-4 0 9996
2 53982 53.1615 118.4426 0001455 88.6159 271.5000 15.08837309204777
Epoch: Jun 19, 2026 • Age: 6 hours

現在のステータス

高度 558.9 km
速度 7.58 km/s
衛星直下点 -52.34°S, 20.12°W
打ち上げ日 Oct 5, 2022
運用期間 3.7 years
タイプ internet

技術仕様

分類 Payload
質量 305.00 kg
乾燥質量 290.00 kg
総質量 305.00 kg
長さ 0.20 m
直径 2.80 m
スパン 9.00 m
形状 Box + pan
製造者 SPXS
バスタイプ Starlink
フェーズステータス In Orbit
所有者/国 SPXS/US

Most Searched